Notices

What's New in latest Release from April 7th, 2021:

- Updated Glossary, including Speed of Maximum Gust, and Total Hourly Precipitation

- Updated national and regional climate services offices contacts and prices information

- Addition of station inventory lists for 1981-2010, 1971-2000, and 1961-1990 Normals.

If you haven't already, please take our survey and provide feedback about our website: https://eccc.sondage-survey.ca/f/LanguageSelection.aspx?s=442ca660-fcf1-47c0-95a9-59707d6fd709

Hourly Data Report for March 29, 2010

HALIFAX STANFIELD INT'L A
NOVA SCOTIA

44°52'48.060" N
63°30'00.050" W
145.40 m
8202250
71395
YHZ

Download Data

Hourly Data (March 2010)
Hourly Data Report for March 29, 2010
TIME
LST
Temp Definition
°C
Dew Point Definition
°C
Rel Hum Definition
%
Precip. Amount Definition
mm

Wind Dir Definition
10's deg

Wind Spd Definition
km/h
Visibility Definition
km
Stn Press Definition
kPa
Hmdx Definition


Wind Chill Definition


Weather Definition


00:00 -3.4 -6.3 80   16 17 24.1 101.30   -9 Cloudy
01:00 -2.6 -5.3 82   18 13 24.1 101.35   -7 Cloudy
02:00 -2.0 -4.6 82   16 17 24.1 101.28   -7 Cloudy
03:00 -1.9 -3.8 87   16 17 24.1 101.23   -7 Cloudy
04:00 -1.0 -3.1 86   15 19 24.1 101.19   -6 Snow Showers
05:00 -0.6 -2.7 86   15 20 24.1 101.19   -6 Snow Showers
06:00 -0.5 -2.4 87   14 22 24.1 101.14   -6 Cloudy
07:00 0.0 -1.7 88   14 20 24.1 101.08   -5 Cloudy
08:00 0.9 -1.4 85   14 22 24.1 101.05     Mostly Cloudy
09:00 1.9 -1.2 80   14 35 24.1 100.95     Cloudy
10:00 3.1 -0.9 75   15 41 24.1 100.92     Cloudy
11:00 3.7 -0.3 75   14 37 24.1 100.83     Cloudy
12:00 3.4 -0.3 77   15 39 24.1 100.82     Cloudy
13:00 2.8 -0.4 79   15 35 24.1 100.87     Cloudy
14:00 3.6 0.0 77   15 39 24.1 100.81     Cloudy
15:00 3.2 0.1 80   15 33 24.1 100.75     Cloudy
16:00 3.1 0.7 84   14 39 24.1 100.63     Cloudy
17:00 3.2 0.9 85   15 35 16.1 100.58     Cloudy
18:00 2.9 1.0 87   14 35 24.1 100.54     Cloudy
19:00 3.0 1.3 89   14 30 16.1 100.58     Rain Showers
20:00 3.6 2.0 89   15 35 16.1 100.50     Rain Showers
21:00 4.0 2.7 91   15 39 16.1 100.42     Cloudy
22:00 4.5 2.7 88   15 37 16.1 100.31     Cloudy
23:00 4.5 2.8 89   15 39 16.1 100.25     Cloudy

Notes on Data Quality.

Legend

  • E = Estimated
  • M = Missing
  • NA = Not Available*
  • [empty] = Indicates an unobserved value
Date modified: